#timestamp,LO_Frequency,Hit,StdDev 
1500930015.6,286047003.1,N,2.4
1500930035.5,286047004.7,N,2.4
1500930055.3,286047004.6,N,2.4
1500930075.1,286047003.1,N,2.4
1500930095.9,286047003.2,N,2.3
1500930115.7,286047003.4,N,2.3
1500930135.6,286047006.0,N,2.3
1500930155.4,286047005.2,N,2.2
1500930175.2,286047006.0,N,2.2
1500930195.1,286047004.6,N,2.2
1500930196.0,286047004.6,N,2.2
1500930215.8,286047004.5,N,2.2
1500930235.7,286047005.1,N,2.3
1500930255.5,286047004.6,N,2.2
1500930275.3,286047003.4,N,2.3
1500930295.2,286047004.0,N,2.3
1500930315.0,286047003.2,N,2.2
1500930315.9,286047003.2,N,2.2
1500930335.8,286047003.5,N,2.3
1500930355.6,286047004.7,N,2.3
1500930375.4,286047005.9,N,2.3
1500930395.3,286047005.0,N,2.3
1500930415.1,286047005.8,N,2.2
1500930435.8,286047004.7,N,2.2
1500930455.7,286047005.6,N,2.2
1500930475.5,286047003.5,N,2.3
1500930495.4,286047003.4,N,2.3
1500930515.2,286047003.3,N,2.3
1500930535.0,286047005.8,N,2.3
1500930535.9,286047005.8,N,2.3
1500930555.8,286047003.3,N,2.3
1500930575.6,286047002.9,N,2.3
1500930595.5,286047005.6,N,2.3
1500930615.3,286047003.4,N,2.3
1500930635.1,286047005.8,N,2.3
1500930655.9,286047005.1,N,2.3
1500930675.7,286047005.1,N,2.3
1500930695.5,286047004.9,N,2.3
1500930715.4,286047004.6,N,2.3
1500930735.2,286047007.1,Y,2.3
1500930755.1,286047001.1,N,2.4
1500930756.0,286047001.1,N,2.4
1500930775.8,286046998.7,N,2.5
1500930795.7,286046998.2,N,2.6
1500930815.5,286046999.0,N,2.7
1500930835.3,286046999.0,N,2.8
1500930855.2,286046998.5,N,2.9
1500930875.0,286046998.2,N,3.0
1500930895.6,286047001.2,N,3.0
1500930915.5,286046996.8,N,3.0
1500930935.3,286046996.6,N,3.1
1500930955.1,286046999.6,N,3.2
1500930975.9,286046999.2,N,3.2
1500930995.7,286046998.7,N,3.3
1500931015.6,286047000.3,N,3.3
1500931035.4,286046998.9,N,3.3
1500931055.2,286046996.9,N,3.4
1500931075.1,286046998.4,N,3.4
1500931076.0,286046998.4,N,3.4
1500931095.8,286046998.2,N,3.4
1500931115.7,286046998.7,N,3.4
1500931135.5,286046998.6,N,3.4
1500931155.3,286047000.8,N,3.3
1500931175.2,286047000.1,N,3.3
1500931195.0,286047001.1,N,3.3
1500931195.9,286047001.1,N,3.2
1500931215.8,286047000.8,N,3.1
1500931235.6,286047000.6,N,3.1
1500931255.4,286047000.1,N,3.0
1500931275.3,286047001.2,N,2.9
1500931295.1,286047000.7,N,2.7
1500931315.9,286047000.2,N,2.7
1500931335.7,286046999.9,N,2.7
1500931355.5,286047001.5,N,2.7
1500931375.4,286047000.2,N,2.7
1500931395.2,286046999.9,N,2.8
1500931415.0,286047002.1,N,2.7
1500931416.0,286047002.1,N,2.7
1500931435.8,286047004.3,N,2.8
1500931455.6,286047000.3,N,2.7
1500931475.5,286046999.7,N,2.7
1500931495.3,286047002.7,N,2.7
1500931515.1,286047000.1,N,2.7
1500931535.9,286047002.1,N,2.7
1500931555.7,286047002.1,N,2.7
1500931575.6,286047002.0,N,2.7
1500931595.4,286047000.2,N,2.6
1500931615.2,286047002.7,N,2.6
1500931635.1,286047000.6,N,2.6
1500931636.0,286047000.6,N,2.6
1500931655.8,286047000.4,N,2.6
1500931675.7,286047002.4,N,2.5
1500931695.5,286047001.9,N,2.5
1500931715.3,286047001.6,N,2.5
1500931735.2,286047002.4,N,2.5
1500931755.0,286047001.5,N,2.5
1500931755.9,286047001.5,N,2.5
1500931775.7,286047000.1,N,2.5
1500931795.6,286047002.2,N,2.4
1500931815.4,286047002.6,N,2.4
1500931835.3,286047001.8,N,2.3
1500931855.1,286047001.7,N,2.3
1500931875.8,286047002.3,N,2.3
1500931895.6,286047002.3,N,2.3
1500931915.4,286047001.4,N,2.2
1500931935.2,286047001.8,N,2.2
1500931955.1,286047004.0,N,2.2
1500931956.0,286047004.0,N,2.1
1500931975.8,286047004.0,N,2.2
1500931995.7,286047001.7,N,2.2
1500932015.5,286047004.1,N,2.1
1500932035.3,286047004.4,N,2.1
1500932055.2,286047004.0,N,2.1
1500932075.0,286047003.9,N,2.1
1500932075.9,286047003.9,N,2.0
1500932095.8,286047004.3,N,2.0
1500932115.6,286047001.7,N,2.0
1500932135.4,286047001.4,N,1.9
1500932155.3,286047003.1,N,1.9
1500932175.1,286047004.0,N,1.9
1500932195.8,286047002.6,N,1.9
1500932215.7,286047001.8,N,1.9
1500932235.5,286047003.9,N,1.9
1500932255.4,286047004.4,N,1.9
1500932275.2,286047003.9,N,1.9
1500932295.0,286047004.3,N,1.9
1500932295.9,286047004.3,N,1.9
1500932315.8,286047001.3,N,1.9
1500932335.6,286047001.8,N,1.8
1500932355.4,286047001.4,N,1.8
1500932375.3,286047001.4,N,1.7
1500932395.1,286047001.5,N,1.7
1500932415.9,286047001.4,N,1.7
1500932435.4,286047001.7,N,1.7
1500932455.3,286047001.3,N,1.6
1500932475.1,286047002.1,N,1.5
1500932495.9,286047002.5,N,1.5
1500932515.7,286047000.1,N,1.4
1500932535.5,286047002.7,N,1.4
1500932555.4,286046999.7,N,1.4
1500932575.2,286047002.2,N,1.4
1500932595.0,286047001.9,N,1.3
1500932595.9,286047001.9,N,1.3
1500932615.8,286047001.4,N,1.3
1500932635.6,286047001.3,N,1.3
1500932655.5,286047004.0,N,1.3
1500932675.3,286047001.3,N,1.3
1500932695.2,286047001.8,N,1.3
1500932715.9,286047001.0,N,1.3
1500932735.7,286046998.1,N,1.4
1500932755.6,286046998.1,N,1.4
1500932775.4,286046998.2,N,1.5
1500932795.3,286047001.2,N,1.5
1500932815.1,286046998.1,N,1.5
1500932816.0,286046998.1,N,1.6
1500932835.8,286047000.8,N,1.6
1500932855.7,286046998.1,N,1.6
1500932875.5,286046998.5,N,1.7
1500932895.3,286046998.7,N,1.7
1500932915.2,286046998.2,N,1.7
1500932935.0,286046998.1,N,1.8
1500932935.9,286046998.1,N,1.8
1500932955.8,286047000.8,N,1.8
1500932975.6,286046998.3,N,1.8
1500932995.4,286046998.2,N,1.9
1500933015.3,286046999.3,N,1.9
1500933035.1,286046998.2,N,1.9
1500933055.9,286046998.3,N,2.0
1500933075.7,286046998.7,N,2.0
1500933095.5,286046998.6,N,2.0
1500933115.4,286046999.2,N,2.0
1500933135.2,286046998.6,N,2.0
1500933155.1,286046999.4,N,2.0
1500933156.0,286046999.4,N,2.0
1500933175.8,286046999.4,N,2.1
1500933195.6,286046999.4,N,2.1
1500933215.5,286046999.1,N,2.1
1500933235.3,286046997.6,N,2.1
1500933255.2,286046997.8,N,2.1
1500933275.9,286046997.1,N,2.2
1500933295.7,286046997.9,N,2.2
1500933315.6,286046995.4,N,2.3
1500933335.4,286046995.1,N,2.4
1500933385.3,286046995.6,Y,2.4
1500933395.2,286046996.7,N,2.5
1500933415.0,286047000.8,N,2.4
1500933415.9,286047000.8,N,2.4
1500933435.8,286046998.5,N,2.4
1500933455.6,286047000.7,N,2.4
1500933475.4,286046998.2,N,2.4
1500933495.3,286046998.5,N,2.3
1500933515.1,286046999.4,N,2.3
1500933535.9,286046999.1,N,2.3
1500933555.7,286046999.4,N,2.2
1500933575.5,286046999.4,N,2.2
1500933595.4,286046998.7,N,2.2
